DMSP 5D-3 F16 (USA 172) 1 28054U 03048A 26248.29909550 -.00000002 00000+0 22446-4 0 9999 2 28054 98.9873 272.6494 0005940 282.3427 88.6735 14.14489151180818 METEOSAT-9 (MSG-2) 1 28912U 05049B 26248.10392149 .00000115 00000+0 00000+0 0 9996 2 28912 9.5380 53.3519 0001549 345.3159 28.6604 1.00269952 7809 DMSP 5D-3 F17 (USA 191) 1 29522U 06050A 26248.28533926 .00000075 00000+0 61046-4 0 9993 2 29522 98.7422 253.2308 0009953 180.7266 179.3895 14.15005012 23751 FENGYUN 3A 1 32958U 08026A 26248.25714220 .00000023 00000+0 31528-4 0 9995 2 32958 98.6919 187.6038 0007577 256.4921 103.5411 14.19585219946761 EWS-G3 (GOES 14) 1 35491U 09033A 26247.89895394 -.00000198 00000+0 00000+0 0 9990 2 35491 1.8887 81.9406 0002171 92.3749 223.6101 1.00072938 7382 DMSP 5D-3 F18 (USA 210) 1 35951U 09057A 26248.26110626 .00000179 00000+0 11556-3 0 9997 2 35951 98.9131 228.8894 0011723 28.9661 331.2161 14.14937273870916 EWS-G2 (GOES 15) 1 36411U 10008A 26248.17871515 .00000012 00000+0 00000+0 0 9992 2 36411 1.4928 81.9007 0005207 79.8764 310.1889 1.00270235 60445 FENGYUN 3B 1 37214U 10059A 26248.30033041 -.00000067 00000+0 -10984-4 0 9998 2 37214 98.9553 294.6275 0021417 321.9860 171.3452 14.14854795818757 SUOMI NPP 1 37849U 11061A 26248.27134945 .00000023 00000+0 31764-4 0 9996 2 37849 98.7990 188.6120 0002844 91.4131 268.7370 14.19531456769800 METEOSAT-10 (MSG-3) 1 38552U 12035B 26248.23747541 -.00000017 00000+0 00000+0 0 9996 2 38552 4.8562 60.5677 0000935 120.4516 248.9454 1.00268881 51665 METOP-B 1 38771U 12049A 26248.29407911 .00000024 00000+0 30841-4 0 9992 2 38771 98.6432 298.1669 0003427 108.7675 251.3875 14.21457196724645 INSAT-3D 1 39216U 13038B 26248.26312884 -.00000350 00000+0 00000+0 0 9999 2 39216 2.1259 81.4412 0001479 131.8609 355.3229 1.00269758 47885 FENGYUN 3C 1 39260U 13052A 26248.25790198 .00000049 00000+0 45755-4 0 9996 2 39260 98.5080 218.4910 0015156 148.8983 211.3092 14.15769876669896 METEOR-M 2 1 40069U 14037A 26248.24890671 .00000301 00000+0 15681-3 0 9990 2 40069 98.5216 221.1867 0006070 152.7008 207.4490 14.21482176630691 HIMAWARI-8 1 40267U 14060A 26248.26529552 -.00000286 00000+0 00000+0 0 9993 2 40267 0.0089 251.6963 0001200 308.7159 20.1143 1.00274164 43560 FENGYUN 2G 1 40367U 14090A 26248.04334124 -.00000313 00000+0 00000+0 0 9993 2 40367 5.8334 71.8095 0004048 184.5189 203.0597 1.00277597 42805 METEOSAT-11 (MSG-4) 1 40732U 15034A 26248.23929541 .00000051 00000+0 00000+0 0 9990 2 40732 3.3966 70.5375 0000739 57.7265 311.4852 1.00270069 8022 ELEKTRO-L 2 1 41105U 15074A 26248.23461538 -.00000128 00000+0 00000+0 0 9992 2 41105 6.8886 69.5044 0001922 190.6950 154.0816 1.00272154 39303 SENTINEL-3A 1 41335U 16011A 26248.30484835 .00000022 00000+0 27061-4 0 9995 2 41335 98.6297 314.5227 0000972 101.4951 258.6338 14.26735725549489 INSAT-3DR 1 41752U 16054A 26248.10955485 -.00000086 00000+0 00000+0 0 9997 2 41752 0.0998 91.1062 0011742 174.0637 192.5086 1.00269301 36629 HIMAWARI-9 1 41836U 16064A 26248.16433731 .00000000 00000+0 00000+0 0 9997 2 41836 0.0239 134.5830 0002640 96.7817 312.8215 1.00269686 36012 GOES 16 1 41866U 16071A 26248.26956043 -.00000101 00000+0 00000+0 0 9998 2 41866 0.5315 84.6839 0001789 132.6657 119.3861 1.00271978 35905 FENGYUN 4A 1 41882U 16077A 26247.97669428 -.00000367 00000+0 00000+0 0 9991 2 41882 2.5171 79.2610 0008210 165.8069 213.9277 1.00265983 35735 CYGFM05 1 41884U 16078A 26247.93469245 .00017657 00000+0 21038-3 0 9992 2 41884 34.9558 91.1483 0004808 206.3518 153.6963 15.60111794541202 CYGFM04 1 41885U 16078B 26247.88499692 .00024723 00000+0 23220-3 0 9993 2 41885 34.9318 54.7194 0004334 260.4587 99.5650 15.66117146541486 CYGFM02 1 41886U 16078C 26248.15556408 .00080151 00000+0 61801-3 0 9998 2 41886 34.9399 44.7307 0004888 273.2404 86.7765 15.70703157541725 CYGFM01 1 41887U 16078D 26248.26918305 .00019792 00000+0 22832-3 0 9993 2 41887 34.9389 89.2774 0004488 204.3512 155.7002 15.60936963541215 CYGFM08 1 41888U 16078E 26247.88456586 .00021924 00000+0 22209-3 0 9997 2 41888 34.9427 69.0757 0005808 235.3969 124.6210 15.64233945541448 CYGFM07 1 41890U 16078G 26248.15737274 .00024024 00000+0 24202-3 0 9996 2 41890 34.9440 55.5134 0004848 257.2986 102.7198 15.64367891541518 CYGFM03 1 41891U 16078H 26247.87386623 .00022165 00000+0 22371-3 0 9992 2 41891 34.9399 59.3322 0004015 241.4760 118.5563 15.64335698541447 FENGYUN 3D 1 43010U 17072A 26248.27679466 .00000443 00000+0 23103-3 0 9996 2 43010 99.0227 224.1805 0001635 141.4105 218.7187 14.19754307456350 NOAA 20 (JPSS-1) 1 43013U 17073A 26248.28495161 .00000028 00000+0 34236-4 0 9998 2 43013 98.7802 187.0457 0001801 61.3653 298.7704 14.19524391455834 GOES 17 1 43226U 18022A 26248.20476997 -.00000192 00000+0 00000+0 0 9997 2 43226 1.1363 84.3625 0001210 135.1061 109.0417 1.00269205 31227 SENTINEL-3B 1 43437U 18039A 26248.13772840 .00000020 00000+0 26118-4 0 9999 2 43437 98.6292 314.5077 0001541 84.2615 275.8741 14.26735380435525 FENGYUN 2H 1 43491U 18050A 26248.11850214 -.00000140 00000+0 00000+0 0 9993 2 43491 3.2289 78.0678 0002822 149.7942 238.3305 1.00272587 30248 METOP-C 1 43689U 18087A 26248.23936126 .00000024 00000+0 31057-4 0 9993 2 43689 98.6969 306.3519 0000853 50.4272 309.6981 14.21508603406200 GEO-KOMPSAT-2A 1 43823U 18100A 26243.00169725 .00000000 00000+0 00000+0 0 9995 2 43823 0.0201 109.3380 0001753 6.8875 351.8379 1.00269640 28384 METEOR-M2 2 1 44387U 19038A 26248.25452909 .00000065 00000+0 48076-4 0 9994 2 44387 98.9234 236.7517 0002001 115.7095 244.4290 14.24383649372691 FENGYUN 3E 1 49008U 21062A 26248.32242541 .00000033 00000+0 36281-4 0 9996 2 49008 98.7549 250.8525 0001155 170.5658 189.5540 14.19910349267958 GOES 18 1 51850U 22021A 26248.23803384 .00000086 00000+0 00000+0 0 9991 2 51850 0.0278 354.3962 0000763 242.1123 56.5323 1.00271782 7392 NOAA 21 (JPSS-2) 1 54234U 22150A 26248.24593362 .00000000 00000+0 20891-4 0 9997 2 54234 98.7087 185.6965 0001626 6.3867 353.7329 14.19547976197905 METEOSAT-12 (MTG-I1) 1 54743U 22170C 26248.23738873 -.00000019 00000+0 00000+0 0 9997 2 54743 0.7684 25.0452 0003633 89.8292 314.5146 1.00269289 13781 TIANMU-1 03 1 55973U 23039A 26248.31753532 .00009881 00000+0 18209-3 0 9995 2 55973 97.5267 65.5760 0003407 139.3611 220.7894 15.49358721193239 TIANMU-1 04 1 55974U 23039B 26248.27411684 .00010359 00000+0 18630-3 0 9990 2 55974 97.5208 64.6960 0004294 140.3869 219.7697 15.50036455193248 TIANMU-1 05 1 55975U 23039C 26248.30238358 .00009770 00000+0 18060-3 0 9992 2 55975 97.5257 65.1457 0002784 159.4756 200.6607 15.49275417193216 TIANMU-1 06 1 55976U 23039D 26248.28310730 .00010354 00000+0 18708-3 0 9994 2 55976 97.5254 65.8453 0003223 150.3380 209.8054 15.49909187193247 FENGYUN 3G 1 56232U 23055A 26248.27453936 .00013384 00000+0 21491-3 0 9992 2 56232 49.9924 293.0978 0012286 350.2557 9.8171 15.53244697192454 METEOR-M2 3 1 57166U 23091A 26248.26755715 -.00000035 00000+0 36363-5 0 9994 2 57166 98.6011 301.5776 0002923 307.5750 52.5164 14.24051992165916 TIANMU-1 07 1 57399U 23101A 26248.27080259 .00003347 00000+0 11563-3 0 9990 2 57399 97.2527 297.1135 0002301 166.5275 193.6028 15.30611322173894 TIANMU-1 08 1 57400U 23101B 26248.30272295 .00003234 00000+0 11180-3 0 9990 2 57400 97.2517 296.9037 0003874 169.1119 191.0206 15.30610336173890 TIANMU-1 09 1 57401U 23101C 26248.28491687 .00003414 00000+0 11798-3 0 9991 2 57401 97.2476 296.2602 0002886 180.6735 179.4503 15.30590593173892 TIANMU-1 10 1 57402U 23101D 26248.25282094 .00003492 00000+0 12041-3 0 9997 2 57402 97.2554 297.3635 0004066 186.9589 173.1596 15.30642779173882 FENGYUN 3F 1 57490U 23111A 26248.30432058 .00000002 00000+0 21202-4 0 9992 2 57490 98.6774 316.7940 0001003 114.9877 245.1404 14.19950010160231 ARKTIKA-M 2 1 58584U 23198A 26230.07438780 .00000056 00000+0 00000+0 0 9992 2 58584 63.2129 147.3319 6901614 267.6403 18.7125 2.00593343 19562 TIANMU-1 11 1 58645U 23205A 26248.30893316 .00003034 00000+0 11467-3 0 9996 2 58645 97.3442 268.6424 0010561 82.9572 277.2868 15.27695528149753 TIANMU-1 12 1 58646U 23205B 26248.29231926 .00003146 00000+0 12003-3 0 9999 2 58646 97.3432 268.3404 0009250 71.5039 288.7205 15.27365909149730 TIANMU-1 13 1 58647U 23205C 26248.32406433 .00003159 00000+0 12059-3 0 9996 2 58647 97.3459 268.6743 0007670 56.9292 303.2683 15.27357400149731 TIANMU-1 14 1 58648U 23205D 26248.30731350 .00003126 00000+0 11928-3 0 9992 2 58648 97.3397 267.7768 0008525 60.3376 299.8712 15.27379235149735 TIANMU-1 19 1 58660U 23208A 26248.29229687 .00004847 00000+0 15613-3 0 9998 2 58660 97.4557 5.0927 0005644 44.9210 315.2488 15.32671985149592 TIANMU-1 20 1 58661U 23208B 26248.26793262 .00004900 00000+0 15197-3 0 9998 2 58661 97.4501 5.7878 0007836 47.5114 312.6790 15.33866261149693 TIANMU-1 21 1 58662U 23208C 26248.32570080 .00005993 00000+0 17108-3 0 9994 2 58662 97.4566 8.8893 0007612 40.1525 320.0280 15.36390025149862 TIANMU-1 22 1 58663U 23208D 26248.30350005 .00004533 00000+0 14895-3 0 9995 2 58663 97.4553 4.9672 0004916 67.2629 292.9131 15.32064619149595 TIANMU-1 15 1 58700U 24004A 26248.30426634 .00003241 00000+0 12366-3 0 9990 2 58700 97.4679 74.5238 0008557 60.1160 300.0928 15.27365569148006 TIANMU-1 16 1 58701U 24004B 26248.29019699 .00003014 00000+0 11488-3 0 9990 2 58701 97.4629 73.6990 0007387 73.6144 286.5907 15.27470725148004 TIANMU-1 17 1 58702U 24004C 26248.27581556 .00003172 00000+0 12077-3 0 9995 2 58702 97.4655 74.1980 0006958 78.0337 282.1681 15.27465484147999 TIANMU-1 18 1 58703U 24004D 26248.32053747 .00003066 00000+0 11720-3 0 9994 2 58703 97.4671 74.5100 0006332 63.4176 296.7712 15.27366442148004 INSAT-3DS 1 58990U 24033A 26248.11111486 -.00000165 00000+0 00000+0 0 9999 2 58990 0.0609 264.7437 0001426 289.4832 272.0828 1.00269708 47878 METEOR-M2 4 1 59051U 24039A 26248.30273073 -.00000002 00000+0 18741-4 0 9992 2 59051 98.7095 206.6232 0006122 304.4991 55.5608 14.22436626130652 GOES 19 1 60133U 24119A 26248.23843247 -.00000259 00000+0 00000+0 0 9990 2 60133 0.0421 328.2313 0000818 283.9523 102.8111 1.00270456 7762 MTG-S1 1 64723U 25143A 26248.23738873 -.00000016 00000+0 00000+0 0 9996 2 64723 0.5961 346.6075 0004063 252.7472 190.1510 1.00274077 4221 METOP-SGA1 1 65159U 25172A 26248.13285681 -.00000004 00000+0 18150-4 0 9992 2 65159 98.7093 306.3272 0000904 85.7170 274.4110 14.21501785 55146 FENGYUN 3H 1 65815U 25219A 26247.59709328 .00000017 00000+0 28471-4 0 9991 2 65815 98.6802 186.8323 0001145 105.4471 254.6832 14.19931441 48654